This is the latest recevied weather packets stored in our database for station/object LU8AQL-WX. If no packets are shown the sender has not sent any weather packets the latest 10 day(s).
| Time | Temp. | Humidity | Pressure | Rain* | Wind** | Luminosity | Snow |
|---|---|---|---|---|---|---|---|
| 1787934049 | 17.22° C | 49% | 1009 hPa | 0 mm | - | - | - |
| 1787933448 | 17.22° C | 47% | 1009 hPa | 0 mm | - | - | - |
| 1787932847 | 16.67° C | 45% | 1011 hPa | 0 mm | - | - | - |
| 1787932246 | 17.22° C | 46% | 1011 hPa | 0 mm | - | - | - |
| 1787931645 | 17.22° C | 46% | 1011 hPa | 0 mm | - | - | - |
| 1787931044 | 16.67° C | 47% | 1010 hPa | 0 mm | - | - | - |
| 1787930443 | 16.67° C | 47% | 1010 hPa | 0 mm | - | - | - |
| 1787929842 | 16.67° C | 49% | 1010 hPa | 0 mm | - | - | - |
| 1787929241 | 16.11° C | 53% | 1011 hPa | 0 mm | - | - | - |
| 1787928640 | 16.67° C | 52% | 1011 hPa | 0 mm | - | - | - |
| 1787928040 | 16.67° C | 56% | 1011 hPa | 0 mm | - | - | - |
| 1787926838 | 16.11° C | 56% | 1010 hPa | 0 mm | - | - | - |
| 1787926237 | 16.11° C | 56% | 1010 hPa | 0 mm | - | - | - |
| 1787925636 | 15° C | 65% | 1011 hPa | 0 mm | - | - | - |
| 1787925035 | 15° C | 66% | 1011 hPa | 0 mm | - | - | - |
| 1787924434 | 15° C | 71% | 1011 hPa | 0 mm | - | - | - |
| 1787923833 | 14.44° C | 71% | 1009 hPa | 0 mm | - | - | - |
| 1787923233 | 14.44° C | 74% | 1009 hPa | 0 mm | - | - | - |
| 1787922632 | 13.89° C | 70% | 1009 hPa | 0 mm | - | - | - |
| 1787922031 | 13.33° C | 78% | 1010 hPa | 0 mm | - | - | - |
| 1787921430 | 13.33° C | 80% | 1010 hPa | 0 mm | - | - | - |
| 1787920829 | 12.78° C | 81% | 1010 hPa | 0 mm | - | - | - |
| 1787920228 | 12.22° C | 85% | 1009 hPa | 0 mm | - | - | - |
| 1787919627 | 12.22° C | 84% | 1009 hPa | 0 mm | - | - | - |
| 1787919026 | 11.67° C | 88% | 1009 hPa | 0 mm | - | - | - |
* Rain latest hour (hover to see other rain measurements)
** Current wind speed in m/s (hover to see current wind gust speed)